Regional Weather Roundup
Issued by NWS

Home | Current Version | Previous Version | Graphics & Text | Print | Product List | Glossary On
Versions: 1 2 3 4 5 6 7 8 9 10 11 12 13 14 15 16 17 18 19 20 21 22 23 24 25 26 27 28 29 30 31 32 33 34 35 36 37 38 39 40 41 42 43 44 45 46 47 48 49 50
000
ASUS45 KCYS 131810
RWRWY

WYOMING REGIONAL WEATHER ROUNDUP
NATIONAL WEATHER SERVICE CHEYENNE WY
1100 AM MST SAT FEB 13 2016

NOTE:  "FAIR" INDICATES FEW OR NO CLOUDS BELOW 12,000 FEET
WITH NO SIGNIFICANT WEATHER AND/OR OBSTRUCTIONS TO VISIBILITY.

WYZ001-131900-
YELLOWSTONE NATIONAL PARK

CITY           SKY/WX    TMP DP  RH WIND       PRES   REMARKS
LK YELLOWSTONE   N/A     30  20  66 W9G36     30.04F WCI  22
6HR MIN TEMP:  23; 6HR MAX TEMP:  35;

W YELLOWSTONE  NOT AVBL

$$
WYZ002>013-054>058-071-098>099-131900-
NORTHERN WYOMING

CITY           SKY/WX    TMP DP  RH WIND       PRES   REMARKS
JACKSON        PTSUNNY   41  27  56 S26G35    30.09F
CODY           FAIR      55  19  24 W14G23    29.89F
GREYBULL       FAIR      46  31  55 VRB5      29.89F
6HR MIN TEMP:  29; 6HR MAX TEMP:  46;

WORLAND        FAIR      40  31  70 CALM      29.91F
6HR MIN TEMP:  24; 6HR MAX TEMP:  41;

SHERIDAN       FAIR      63  28  26 N7        29.83F
6HR MIN TEMP:  30; 6HR MAX TEMP:  63;

BUFFALO          N/A     52  30  43 MISG      29.86F
6HR MIN TEMP:  40; 6HR MAX TEMP:  52;

GILLETTE       FAIR      46  32  58 S14       29.85F
6HR MIN TEMP:  31; 6HR MAX TEMP:  46;

HULETT         FAIR      41  32  70 CALM      29.87F
NEWCASTLE      FAIR      41  28  60 SW6       29.94F

$$
WYZ014>020-022>026-101>103-131900-
CENTRAL WYOMING

CITY           SKY/WX    TMP DP  RH WIND       PRES   REMARKS
BIG PINEY      FAIR      33  23  66 CALM      30.15S
6HR MIN TEMP:  17; 6HR MAX TEMP:  33;

PINEDALE         N/A     34  23  64 E5        30.16  WCI  30
DUBOIS         FAIR      43  12  28 W36G52    30.00F
LANDER         FAIR      51  16  24 N7G29     29.98F
6HR MIN TEMP:  28; 6HR MAX TEMP:  53;

RIVERTON       FAIR      45  23  42 SW5       30.00F
6HR MIN TEMP:  27; 6HR MAX TEMP:  45;

CASPER         FAIR      43  23  45 SW18      29.99F
6HR MIN TEMP:  38; 6HR MAX TEMP:  43;

DOUGLAS        FAIR      53  24  32 W20       29.96F
6HR MIN TEMP:  28; 6HR MAX TEMP:  55;


$$
WYZ021-027>030-104>119-131900-
SOUTHERN WYOMING

CITY           SKY/WX    TMP DP  RH WIND       PRES   REMARKS
EVANSTON       FAIR      35  16  45 SW12      30.25S WCI  27
6HR MIN TEMP:  27; 6HR MAX TEMP:  35;

KEMMERER       FAIR      37  21  52 W13       30.20S WCI  29
FORT BRIDGER   CLEAR     39  23  52 W22       30.25R WCI  29
ROCK SPRINGS   FAIR      39  18  42 W21       30.18F WCI  29
6HR MIN TEMP:  31; 6HR MAX TEMP:  40;

DIXON          FAIR      30  20  66 CALM      30.24S
RAWLINS        PTSUNNY   40  20  44 W21G29    30.13F WCI  30
6HR MIN TEMP:  32; 6HR MAX TEMP:  40;

SARATOGA       FAIR      41  23  48 SW17      30.14F
LARAMIE        FAIR      50  14  23 W22G31    30.07F
6HR MIN TEMP:  36; 6HR MAX TEMP:  51;

CHEYENNE       FAIR      53  14  21 W17       30.03S
6HR MIN TEMP:  33; 6HR MAX TEMP:  57;

TORRINGTON     FAIR      34  31  88 SE7       29.97F WCI  28
6HR MIN TEMP:  25; 6HR MAX TEMP:  34;

PINE BLUFFS    FAIR      41  34  75 S10       30.01F

$$



USA.gov is the U.S. government's official web portal to all federal, state and local government web resources and services.